EN

Hourly Weather Capotillo

Today, 16 April, Friday

Time Temperature Precipitation Wind Pressure Humidity
00:00 +23°C° 0 mm 2 mps 758 mmHg 84%
01:00 +22°C° 0 mm 1 mps 758 mmHg 87%
02:00 +22°C° 0 mm 1 mps 758 mmHg 88%
03:00 +22°C° 0 mm 1 mps 758 mmHg 89%
04:00 +21°C° 0 mm 1 mps 757 mmHg 90%
05:00 +23°C° 0 mm 1 mps 758 mmHg 85%
06:00 +24°C° 0 mm 1 mps 758 mmHg 80%
07:00 +25°C° 0 mm 1 mps 759 mmHg 74%
08:00 +27°C° 0 mm 2 mps 759 mmHg 65%
09:00 +29°C° 0 mm 2 mps 759 mmHg 55%
10:00 +31°C° 0 mm 2 mps 759 mmHg 46%
11:00 +33°C° 0 mm 3 mps 758 mmHg 45%
12:00 +33°C° 0 mm 3 mps 758 mmHg 45%
13:00 +34°C° 0 mm 4 mps 757 mmHg 44%
14:00 +34°C° 0 mm 4 mps 757 mmHg 46%
15:00 +33°C° 0 mm 3 mps 757 mmHg 48%
16:00 +31°C° 0 mm 3 mps 756 mmHg 49%
17:00 +30°C° 0 mm 3 mps 757 mmHg 60%
18:00 +28°C° 0 mm 2 mps 757 mmHg 71%
19:00 +26°C° 0 mm 2 mps 758 mmHg 81%
20:00 +26°C° 0 mm 2 mps 758 mmHg 84%
21:00 +25°C° 0 mm 1 mps 759 mmHg 87%
22:00 +25°C° 0 mm 1 mps 759 mmHg 90%
23:00 +25°C° 0 mm 1 mps 759 mmHg 90%

Tomorrow, 17 April, Saturday

Time Temperature Precipitation Wind Pressure Humidity
00:00 +25°C° 0 mm 1 mps 759 mmHg 90%
01:00 +25°C° 0 mm 2 mps 758 mmHg 90%
02:00 +24°C° 0 mm 2 mps 758 mmHg 91%
03:00 +24°C° 0 mm 1 mps 758 mmHg 92%
04:00 +23°C° 0 mm 1 mps 758 mmHg 93%
05:00 +24°C° 0 mm 1 mps 759 mmHg 88%
06:00 +26°C° 0 mm 1 mps 759 mmHg 83%
07:00 +27°C° 0 mm 1 mps 760 mmHg 78%
08:00 +29°C° 0 mm 2 mps 760 mmHg 70%
09:00 +31°C° 0 mm 3 mps 760 mmHg 62%
10:00 +34°C° 0 mm 3 mps 760 mmHg 55%
11:00 +34°C° 0 mm 3 mps 759 mmHg 54%
12:00 +34°C° 0 mm 4 mps 759 mmHg 54%
13:00 +34°C° 0 mm 4 mps 759 mmHg 54%
14:00 +34°C° 0 mm 4 mps 758 mmHg 56%
15:00 +33°C° 0 mm 4 mps 758 mmHg 59%
16:00 +32°C° 0 mm 4 mps 758 mmHg 61%
17:00 +30°C° 0 mm 3 mps 758 mmHg 68%
18:00 +28°C° 0 mm 2 mps 759 mmHg 74%
19:00 +27°C° 0 mm 2 mps 759 mmHg 81%
20:00 +26°C° 0 mm 1 mps 760 mmHg 84%
21:00 +26°C° 0 mm 1 mps 760 mmHg 87%
22:00 +25°C° 0 mm 1 mps 760 mmHg 90%
23:00 +25°C° 0 mm 1 mps 760 mmHg 90%

Day after tomorrow, 18 April, Sunday

Time Temperature Precipitation Wind Pressure Humidity
00:00 +25°C° 0 mm 1 mps 760 mmHg 91%
01:00 +24°C° 0 mm 1 mps 759 mmHg 91%
02:00 +24°C° 0 mm 1 mps 759 mmHg 92%
03:00 +24°C° 0 mm 1 mps 759 mmHg 92%
04:00 +24°C° 0 mm 1 mps 759 mmHg 93%
05:00 +25°C° 0 mm 1 mps 760 mmHg 89%
06:00 +26°C° 0 mm 1 mps 760 mmHg 85%
07:00 +27°C° 0 mm 1 mps 761 mmHg 81%
08:00 +29°C° 0.1 mm 2 mps 761 mmHg 73%
09:00 +30°C° 0.1 mm 3 mps 761 mmHg 64%
10:00 +33°C° 0.1 mm 3 mps 761 mmHg 56%
11:00 +34°C° 0 mm 4 mps 760 mmHg 54%
12:00 +34°C° 0 mm 4 mps 760 mmHg 52%
13:00 +35°C° 0 mm 5 mps 759 mmHg 51%
14:00 +34°C° 0 mm 4 mps 759 mmHg 52%
15:00 +33°C° 0 mm 4 mps 759 mmHg 54%
16:00 +32°C° 0 mm 4 mps 758 mmHg 55%
17:00 +29°C° 0 mm 3 mps 759 mmHg 65%
18:00 +28°C° 0 mm 2 mps 759 mmHg 75%
19:00 +26°C° 0 mm 2 mps 760 mmHg 85%
20:00 +26°C° 0 mm 2 mps 760 mmHg 87%
21:00 +25°C° 0 mm 1 mps 760 mmHg 89%
22:00 +25°C° 0 mm 1 mps 761 mmHg 91%
23:00 +25°C° 0 mm 1 mps 760 mmHg 92%

19 April, Monday

Time Temperature Precipitation Wind Pressure Humidity
00:00 +25°C° 0 mm 1 mps 760 mmHg 92%
01:00 +25°C° 0 mm 1 mps 760 mmHg 93%
02:00 +25°C° 0.1 mm 1 mps 760 mmHg 93%
03:00 +25°C° 0.1 mm 1 mps 760 mmHg 92%
04:00 +25°C° 0.1 mm 1 mps 760 mmHg 91%
05:00 +26°C° 0 mm 1 mps 760 mmHg 88%
06:00 +26°C° 0 mm 2 mps 761 mmHg 86%
07:00 +27°C° 0 mm 2 mps 761 mmHg 83%
08:00 +29°C° 0.1 mm 3 mps 761 mmHg 74%
09:00 +30°C° 0.1 mm 4 mps 761 mmHg 65%
10:00 +33°C° 0.1 mm 5 mps 761 mmHg 56%
11:00 +34°C° 0 mm 5 mps 761 mmHg 52%
12:00 +34°C° 0 mm 5 mps 760 mmHg 48%
13:00 +35°C° 0 mm 5 mps 760 mmHg 44%
14:00 +34°C° 0 mm 5 mps 760 mmHg 49%
15:00 +33°C° 0 mm 5 mps 759 mmHg 54%
16:00 +32°C° 0 mm 5 mps 759 mmHg 59%
17:00 +30°C° 0 mm 4 mps 759 mmHg 66%
18:00 +28°C° 0 mm 3 mps 760 mmHg 74%
19:00 +26°C° 0 mm 2 mps 760 mmHg 81%
20:00 +26°C° 0 mm 2 mps 760 mmHg 84%
21:00 +26°C° 0 mm 2 mps 761 mmHg 86%
22:00 +25°C° 0 mm 2 mps 761 mmHg 88%
23:00 +25°C° 0 mm 2 mps 761 mmHg 89%

20 April, Tuesday

Time Temperature Precipitation Wind Pressure Humidity
00:00 +25°C° 0 mm 1 mps 761 mmHg 89%
01:00 +24°C° 0 mm 1 mps 760 mmHg 89%
02:00 +24°C° 0 mm 1 mps 760 mmHg 90%
03:00 +24°C° 0 mm 1 mps 760 mmHg 91%
04:00 +24°C° 0 mm 1 mps 760 mmHg 91%
05:00 +25°C° 0 mm 1 mps 760 mmHg 87%
06:00 +26°C° 0 mm 2 mps 761 mmHg 82%
07:00 +27°C° 0 mm 2 mps 761 mmHg 78%
08:00 +29°C° 0.1 mm 3 mps 761 mmHg 68%
09:00 +32°C° 0.1 mm 4 mps 761 mmHg 58%
10:00 +34°C° 0.1 mm 4 mps 761 mmHg 49%
11:00 +34°C° 0 mm 5 mps 761 mmHg 47%
12:00 +34°C° 0 mm 5 mps 760 mmHg 45%
13:00 +35°C° 0 mm 5 mps 760 mmHg 43%
14:00 +34°C° 0 mm 5 mps 760 mmHg 46%
15:00 +33°C° 0 mm 5 mps 759 mmHg 50%
16:00 +32°C° 0 mm 5 mps 759 mmHg 54%
17:00 +30°C° 0 mm 4 mps 759 mmHg 62%
18:00 +28°C° 0 mm 3 mps 760 mmHg 71%
19:00 +26°C° 0 mm 2 mps 760 mmHg 80%
20:00 +26°C° 0 mm 2 mps 760 mmHg 82%
21:00 +25°C° 0 mm 2 mps 761 mmHg 85%
22:00 +25°C° 0 mm 2 mps 761 mmHg 87%
23:00 +25°C° 0 mm 2 mps 761 mmHg 89%

21 April, Wednesday

Time Temperature Precipitation Wind Pressure Humidity
00:00 +24°C° 0 mm 2 mps 760 mmHg 90%
01:00 +24°C° 0 mm 2 mps 760 mmHg 92%
02:00 +24°C° 0 mm 2 mps 760 mmHg 93%
03:00 +23°C° 0 mm 2 mps 760 mmHg 93%
04:00 +23°C° 0 mm 2 mps 760 mmHg 94%
05:00 +24°C° 0 mm 2 mps 760 mmHg 89%
06:00 +26°C° 0 mm 2 mps 761 mmHg 83%
07:00 +27°C° 0 mm 2 mps 761 mmHg 78%
08:00 +29°C° 0 mm 2 mps 761 mmHg 66%
09:00 +31°C° 0 mm 2 mps 761 mmHg 54%
10:00 +34°C° 0 mm 2 mps 761 mmHg 42%
11:00 +35°C° 0 mm 3 mps 760 mmHg 41%
12:00 +35°C° 0 mm 4 mps 760 mmHg 39%
13:00 +36°C° 0 mm 5 mps 759 mmHg 38%
14:00 +35°C° 0 mm 5 mps 759 mmHg 42%
15:00 +34°C° 0 mm 5 mps 759 mmHg 47%
16:00 +32°C° 0 mm 5 mps 759 mmHg 52%
17:00 +30°C° 0 mm 4 mps 759 mmHg 62%
18:00 +28°C° 0 mm 3 mps 760 mmHg 71%
19:00 +26°C° 0 mm 2 mps 760 mmHg 80%
20:00 +26°C° 0.1 mm 2 mps 760 mmHg 83%
21:00 +25°C° 0.1 mm 2 mps 760 mmHg 85%
22:00 +25°C° 0.1 mm 2 mps 761 mmHg 88%
23:00 +24°C° 0 mm 2 mps 760 mmHg 89%
Show more

We Need Your Consent

Meteoprog and our Service Providers may store and access personal data such as cookies, device identifiers or other similar technologies on your device and process such data to personalise content and ads, as well as provide social media features and to analyse the traffic.

  • Store and/or access information on your device

    Cookies, device identifiers or other information can be stored or accessed on your device for the purposes indicated above.

  • Personalised ads and content, ad and content measurement, audience insights, and products development

    Ads and content can be personalised based on a profile. More data can be added to better personalise ads and content. Ad and content performance can be measured. Insights about the audience who saw the ads and content can be derived. Such data can be used to develop or improve user’s experience, systems and software.

By clicking ‘I Agree’ you will allow the use of indicated cookies, device identifiers, web beacons or other similar technologies. Your settings can be changed in the browser on your device.

For certain purposes, legitimate interests may be relied on, rather than consent. You can read more about this in our Privacy and Cookie Policy.